INTELSAT 19 (IS-19) (38356 NORAD) Tracking and Keplerian Element Data

This shows tracking and keplerian element data for the satellite.

Feedback or suggestion? Click here.




ElementValue
Catalog38356
NameINTELSAT 19 (IS-19)
Epoch Orbit4651
Epoch Day34.78795878
Epoch Year2025
RAAN257.0056
Inclination0.0019
Eccentricity0.0003358
Argument of Perigee63.8083
Mean Anonmoly263.0358
Mean Motion1.0027098
Decay Rate-5.2E-07
L11 38356U 12030A 25034.78795878 -.00000052 00000+0 00000+0 0 9990
L22 38356 0.0019 257.0056 0003358 63.8083 263.0358 1.00270980 46519



Live tracking and technical data element details for INTELSAT 19 (IS-19) (NORAD 38356). INTELSAT 19 (IS-19) can be tracked NOW for your location showing map with azimuth and elevation plus other details from your city location.







IsCatalogInMostPopularTable: catalog: 38356, numindb: 739
Update: records affected: 1



GetName: 38356 INTELSAT 19 (IS-19)

Hit Count: updated at: Wed, 30 Apr 2025 16:53:40 GMT